Location: RyutenAO
(34.8939°N, 134.0022°E)
Time: 10:31:09
(UTC+09:00)

Oscar 19 - Pass Details

Date: 07 April 2023
Orbit: 773 x 788 km, 98.8° (Epoch: 29 May)

Event Time Altitude Azimuth Distance (km) Brightness Sun altitude
Rises 03:39:07 0° 21° (NNE) 3,272 14.6 -25.0°
Reaches altitude 10° 03:41:32 10° 27° (NNE) 2,342 13.8 -24.6°
Maximum altitude 03:46:28 44° 100° (E) 1,073 11.6 -23.7°
Enters shadow 03:51:12 11° 171° (S) 2,274 12.9 -22.8°
